Regional Weather Roundup
Issued by NWS

Home | Current Version | Previous Version | Text Only | Print | Product List | Glossary Off
Versions: 1 2 3 4 5 6 7 8 9 10 11 12 13 14 15 16 17 18 19 20 21 22 23 24 25 26 27 28 29 30 31 32 33 34 35 36 37 38 39 40 41 42 43 44 45 46 47 48 49 50

067
ASUS45 KCYS 150410
RWRWY

WYOMING REGIONAL WEATHER ROUNDUP
NATIONAL WEATHER SERVICE CHEYENNE WY
900 PM MST THU DEC 14 2017

NOTE:  "FAIR" INDICATES FEW OR NO CLOUDS BELOW 12,000 FEET
WITH NO SIGNIFICANT WEATHER AND/OR OBSTRUCTIONS TO VISIBILITY.

WYZ001-150500-
YELLOWSTONE NATIONAL PARK

CITY           SKY/WX    TMP DP  RH WIND       PRES   REMARKS
LK YELLOWSTONE   N/A      8   5  87 NW3       30.32S
W YELLOWSTONE  NOT AVBL

$$
WYZ002>013-054>058-071-098>099-150500-
NORTHERN WYOMING

CITY           SKY/WX    TMP DP  RH WIND       PRES   REMARKS
JACKSON        FAIR      13  10  88 NE5       30.34R WCI   5
CODY           FAIR      20  14  77 CALM      30.14F
GREYBULL       FAIR      27  17  66 SE7       30.18F WCI  19
WORLAND        FAIR      22  17  81 CALM      30.18F
SHERIDAN       FAIR      22  16  78 S6        30.10F WCI  14
BUFFALO        FAIR      30  15  53 S9        30.10F WCI  22
GILLETTE       FAIR      28  18  66 VRB5      30.11F WCI  23
HULETT         FAIR      28  21  74 SW13      30.09F WCI  18
NEWCASTLE      FAIR      19  14  79 N9        30.15F WCI   9

$$
WYZ014>020-022>026-101>103-150500-
CENTRAL WYOMING

CITY           SKY/WX    TMP DP  RH WIND       PRES   REMARKS
BIG PINEY      FAIR      15  12  88 NW5       30.28F WCI   8
PINEDALE       FAIR       9   5  85 W3        30.28F
DUBOIS         FAIR      32  -6  19 NW15G30   30.20S WCI  22
LANDER         FAIR      22  16  78 SE5       30.18F WCI  16
RIVERTON       FAIR      21  17  84 W3        30.19F
CASPER         FAIR      27  16  63 SW18      30.18F WCI  14
DOUGLAS        FAIR      21  17  84 N7        30.17F WCI  12

$$
WYZ021-027>030-104>119-150500-
SOUTHERN WYOMING

CITY           SKY/WX    TMP DP  RH WIND       PRES   REMARKS
EVANSTON       FAIR      23  18  81 S10       30.34F WCI  12
FORT BRIDGER   FAIR      30   8  39 W14       30.34S WCI  20
ROCK SPRINGS   FAIR      26  11  52 SW17      30.28S WCI  13
DIXON          FAIR      17  12  81 CALM      30.36S
RAWLINS        FAIR      23  16  74 SW14      30.25F WCI  11
SARATOGA       FAIR      12   9  85 SE5       30.29R WCI   4
LARAMIE        FAIR       7   4  87 SE10      30.19F WCI  -8
CHEYENNE       FAIR      24  11  57 W12       30.16S WCI  13
TORRINGTON     FAIR      19  14  81 CALM      30.18F
PINE BLUFFS    FAIR      14  10  85 W9        30.20F WCI   2

$$




USA.gov is the U.S. government's official web portal to all federal, state and local government web resources and services.